Theta_e
319 318 318 318 319 319 319 319 320 320 319 319 319 319 319 320 321 321 321 321 321 321 322 321 322 323 324 326 329 334 341 349 354 352 353 352 351 350 350 349 349 350 350 351
319 318 318 318 318 318 318 318 319 319 319 319 319 320 320 320 321 321 321 321 322 322 322 322 321 322 322 324 327 330 334 342 348 352 352 351 351 349 349 350 349 348 349 348
319 319 317 317 317 317 318 317 318 318 319 319 319 319 319 320 320 320 321 321 321 321 321 322 322 321 321 322 324 325 328 334 339 347 351 352 351 351 349 349 349 348 346 346
318 317 317 316 316 316 316 317 317 318 319 319 320 320 321 321 321 321 321 320 320 320 321 321 321 321 321 321 321 323 326 329 332 338 343 347 350 348 347 346 346 347 346 345
318 317 316 317 316 316 317 318 318 319 319 320 320 320 320 321 321 321 321 321 321 321 321 321 321 321 321 322 322 322 323 326 330 333 339 341 346 345 345 345 346 348 348 347
317 318 317 317 316 316 317 318 318 319 319 321 321 321 321 322 322 322 322 321 321 321 321 321 321 322 322 322 323 324 325 327 328 331 333 338 345 346 346 346 345 345 347 349
320 319 318 317 318 318 317 319 322 324 324 324 324 324 324 323 322 322 322 322 322 322 322 322 323 323 323 323 323 325 325 327 327 328 330 333 336 343 346 349 345 344 345 346
322 323 320 318 318 319 320 321 323 325 326 325 324 325 325 323 322 322 321 321 323 322 322 323 322 322 322 322 323 323 324 325 327 328 329 329 332 334 336 340 345 344 344 342
321 323 321 321 320 319 319 320 321 323 324 324 324 324 324 324 323 322 321 322 323 322 322 321 321 321 321 321 321 322 322 323 326 328 330 330 331 333 335 336 340 341 344 344
322 325 322 320 319 319 320 321 322 325 329 328 325 325 325 325 324 323 323 322 323 322 321 320 320 319 319 319 320 320 322 322 323 326 329 329 329 331 333 337 339 341 342 343
323 324 326 323 325 323 322 322 324 323 325 332 333 327 325 326 325 324 323 323 322 321 320 319 318 318 318 319 319 320 320 322 322 322 325 329 330 331 331 333 335 338 339 338
320 325 327 324 322 322 323 322 324 332 333 329 330 329 324 325 325 323 323 321 320 318 317 317 318 317 318 318 318 319 320 321 322 323 322 324 325 325 326 327 329 331 332 332
321 325 327 324 323 321 323 323 321 322 324 328 333 329 323 323 322 321 321 319 317 317 318 318 318 318 318 318 317 317 318 318 318 318 322 322 322 323 323 325 327 329 329 328
317 321 322 326 324 325 325 325 323 324 331 329 328 326 323 324 323 323 320 317 317 318 318 317 318 318 316 316 316 316 316 316 316 317 317 319 322 321 320 320 322 325 327 328
317 322 319 319 319 319 319 319 319 320 322 325 323 321 320 320 320 318 318 317 317 317 317 316 316 316 316 315 315 315 314 314 314 315 315 316 317 318 318 317 317 320 323 326
317 320 318 319 317 317 318 317 317 317 318 318 319 319 318 318 317 318 318 317 316 316 315 316 316 315 316 315 314 314 313 313 313 313 313 314 314 316 316 317 317 317 319 321
318 319 322 321 317 316 317 316 316 315 315 315 315 314 318 318 319 318 317 317 316 316 315 315 315 315 314 314 313 313 313 313 312 312 312 312 312 313 314 314 316 315 317 318
317 320 319 320 317 320 316 318 317 317 317 316 315 316 318 318 317 315 315 315 315 315 315 314 314 313 312 311 311 311 311 311 311 311 311 312 311 312 312 313 313 315 314 314
315 317 322 322 320 317 316 316 318 319 319 318 318 317 315 315 314 314 314 315 314 314 313 313 312 311 310 310 310 309 309 308 309 310 310 311 311 311 311 312 313 314 314 316
317 318 320 320 323 318 321 318 316 316 318 318 316 315 315 314 315 315 315 314 312 313 312 312 311 309 308 307 307 307 307 307 307 308 309 310 309 309 309 311 312 313 313 314
320 320 323 321 321 319 319 317 315 319 322 317 315 314 314 314 314 314 312 312 311 311 310 310 309 309 308 307 306 306 306 306 304 304 306 307 307 308 309 310 312 312 312 312
321 321 321 320 324 320 316 315 317 317 315 314 313 312 311 311 310 310 310 310 310 311 311 309 308 307 306 307 306 305 304 304 303 303 304 304 304 304 305 306 307 309 310 312
321 320 322 320 320 318 316 315 314 313 313 311 310 310 310 309 309 309 309 309 310 310 309 307 306 306 307 306 306 306 304 303 302 302 302 302 302 302 303 303 304 306 307 308
313 314 315 316 316 314 313 312 312 311 311 311 310 309 309 308 309 309 309 309 310 308 307 306 305 305 305 305 303 303 303 302 301 301 300 300 301 301 302 302 302 303 304 306
312 312 312 312 313 314 313 312 311 311 311 310 309 308 308 308 308 308 309 308 306 305 305 304 302 301 301 301 302 301 300 300 300 300 301 301 301 301 301 302 303 303 303 303
312 314 316 316 314 314 313 312 311 310 310 308 307 307 307 308 308 307 306 304 305 303 301 300 299 299 298 297 298 298 298 298 298 300 299 300 300 301 301 301 301 301 301 301
Wind_Speed
15 11 14 18 17 17 12 14 11 12 13 9 13 15 16 14 16 15 14 14 14 14 12 14 11 10 8 4 6 10 16 17 21 22 24 25 27 27 28 29 29 30 32 33
11 15 16 14 9 10 9 15 15 13 11 11 14 17 17 16 17 16 15 16 14 11 13 13 14 13 11 8 6 5 12 15 19 22 22 24 24 26 28 28 29 32 31 33
16 10 8 13 11 14 16 17 15 15 9 12 13 17 18 17 17 15 16 16 14 14 13 12 12 10 13 13 11 9 7 9 17 20 20 21 23 22 24 27 28 31 33 31
13 17 11 11 17 17 17 17 14 13 12 14 18 14 15 17 19 20 17 15 17 17 12 12 10 12 15 14 15 13 10 9 11 16 23 24 23 25 28 27 28 29 31 32
14 13 13 16 15 17 16 10 8 13 15 16 19 13 15 15 16 17 15 15 12 10 10 9 6 7 10 10 12 14 13 12 12 13 17 24 27 29 28 29 27 25 26 33
18 7 6 12 14 15 14 11 12 15 14 16 19 18 16 14 12 14 12 12 12 10 2 5 7 10 12 11 11 11 11 16 16 16 17 19 25 27 26 26 28 26 26 26
17 18 16 12 12 10 12 13 11 14 14 15 19 18 14 11 4 8 5 5 5 5 5 6 6 8 9 11 9 10 10 12 15 16 17 19 22 24 27 28 29 28 26 32
13 13 17 15 18 17 17 18 14 18 15 16 8 9 7 4 3 3 2 1 3 2 6 6 8 8 12 9 12 13 15 15 15 17 18 19 20 23 25 28 32 30 31 32
12 19 21 12 10 17 20 20 20 22 21 17 18 26 22 14 17 16 12 5 5 3 5 8 8 11 12 15 13 11 13 15 14 15 17 18 20 21 25 27 25 28 33 28
10 12 17 10 10 15 18 13 10 12 16 23 17 19 13 9 2 5 10 7 5 5 10 12 13 14 14 17 18 19 13 13 17 14 16 16 17 20 24 24 26 25 27 29
17 11 14 11 10 17 14 16 18 16 15 10 14 11 9 6 1 5 4 4 6 9 12 15 16 18 15 14 19 18 14 14 11 14 13 12 13 14 17 21 21 23 25 28
2 5 13 22 20 19 21 17 20 10 9 14 13 16 10 5 10 3 7 9 10 12 13 14 15 19 18 16 14 18 13 13 16 12 13 11 11 11 14 18 17 17 18 18
6 5 10 13 18 22 14 17 15 15 16 21 16 12 4 9 7 7 10 13 9 10 11 11 15 12 13 13 12 15 19 15 10 12 14 8 7 7 12 15 15 15 15 16
4 13 16 15 15 3 9 12 13 10 6 11 18 21 16 11 9 12 18 9 9 9 10 9 11 11 14 12 14 16 16 15 17 15 14 11 13 7 3 10 14 13 16 18
3 9 17 18 19 21 20 18 17 19 18 19 19 21 20 17 17 10 9 8 8 11 12 11 10 10 11 15 13 16 17 18 19 19 18 19 12 13 15 14 21 25 14 16
6 10 11 17 18 18 18 19 20 22 22 22 22 22 20 19 5 8 8 9 10 11 14 15 15 12 10 12 17 19 19 22 22 21 22 22 21 14 12 15 22 18 20 15
4 7 4 12 7 11 14 18 19 19 20 21 20 16 10 3 4 7 12 12 13 15 17 13 16 12 15 17 18 20 25 25 24 26 26 25 25 23 18 13 18 22 26 15
9 11 5 8 8 11 6 3 5 7 11 9 6 7 10 8 10 11 15 16 18 14 15 15 16 19 22 25 29 30 28 27 28 29 30 27 27 27 25 21 19 20 28 24
19 15 5 4 8 11 14 4 4 4 7 6 10 4 5 10 15 17 17 10 14 17 17 18 23 22 25 25 24 25 24 28 32 32 32 31 28 28 27 26 23 21 19 21
14 17 10 4 5 6 5 5 4 4 8 8 8 9 14 16 13 12 18 19 19 19 23 25 27 29 26 25 25 30 33 30 29 32 35 31 29 29 29 29 25 23 23 25
3 4 9 12 8 6 4 1 4 7 3 10 12 14 16 15 14 20 20 20 20 24 28 30 31 30 29 26 23 24 27 28 30 35 35 35 35 31 31 30 29 26 26 28
2 5 6 8 5 6 3 2 5 5 9 12 13 14 16 17 20 21 21 21 22 23 26 31 28 30 29 28 29 22 26 33 34 31 30 28 27 31 30 27 25 25 26 26
3 5 3 3 2 3 3 3 5 7 10 11 15 16 17 20 21 22 21 24 24 25 27 32 31 27 31 31 32 28 27 30 30 30 29 27 30 29 31 32 30 31 29 27
2 5 5 6 4 2 3 3 3 10 11 15 16 18 19 21 22 23 21 22 23 22 24 29 25 26 30 35 36 34 28 29 31 30 29 30 29 28 28 28 30 30 29 29
9 10 10 11 3 8 6 9 11 15 14 15 18 20 21 21 22 23 23 24 23 24 30 30 27 29 32 32 32 32 30 31 26 28 27 27 26 27 28 29 28 28 31 30
4 5 4 5 6 6 12 15 18 17 18 20 19 21 21 22 23 24 22 22 23 23 30 28 32 28 29 32 28 30 27 27 27 24 24 24 24 25 24 24 26 33 40 40
Wind_Direction
204 218 215 223 224 252 310 284 274 232 232 203 237 253 238 233 231 232 225 233 237 237 239 234 232 250 251 264 244 232 226 231 213 219 219 220 226 224 225 227 225 222 220 222
199 233 249 232 254 252 260 250 250 263 256 245 259 252 248 246 243 245 227 235 232 229 236 241 238 242 264 267 262 258 242 236 230 225 227 232 225 231 227 226 226 222 218 220
241 236 217 259 222 239 235 245 245 252 262 213 251 261 257 254 249 241 246 243 249 250 254 258 250 251 268 274 269 267 269 255 239 237 235 235 243 246 232 227 226 219 219 221
241 248 231 246 234 222 242 222 249 267 249 252 231 263 251 227 227 224 227 237 242 239 225 226 238 232 244 265 275 281 285 284 265 245 244 248 239 234 234 236 229 223 218 223
240 224 248 229 239 227 246 270 254 245 254 266 256 254 260 245 246 228 219 242 235 237 246 251 236 299 293 272 273 278 281 281 284 272 257 252 246 247 243 252 242 227 218 215
260 281 266 254 230 242 253 256 252 249 249 246 245 250 256 256 233 196 229 233 232 239 238 331 304 304 286 290 301 306 301 298 288 281 272 260 258 268 260 243 244 233 224 216
237 246 250 224 259 225 234 225 246 237 229 243 241 237 246 251 188 222 226 254 38 13 311 285 314 305 326 303 312 307 296 299 294 288 279 270 263 260 260 261 252 254 235 214
277 262 215 222 240 258 228 225 248 268 269 272 296 267 242 208 231 276 244 36 311 295 335 325 305 307 305 318 315 318 312 307 302 296 289 280 274 265 259 252 254 247 244 244
257 254 271 252 289 218 243 262 277 283 283 279 279 285 279 184 193 203 227 202 221 206 294 291 297 314 312 308 294 296 307 309 303 303 297 284 277 267 265 266 265 242 248 242
294 302 266 265 261 260 272 281 276 266 270 259 256 263 272 307 27 222 209 205 224 295 306 310 310 300 301 303 295 286 284 308 306 304 305 293 284 275 268 261 260 249 240 247
277 268 268 260 253 266 242 241 256 265 268 270 277 271 77 284 161 277 169 259 299 301 309 314 306 294 290 303 310 313 303 289 297 317 313 306 300 308 301 272 267 258 243 244
324 277 256 260 263 241 270 265 240 247 258 264 280 273 289 104 276 185 269 286 305 324 312 299 291 293 300 303 308 315 320 298 315 332 343 0 349 344 335 308 278 254 240 223
345 221 272 263 241 238 240 243 252 256 263 252 259 254 328 3 325 312 306 290 305 298 288 309 316 319 319 318 307 308 311 312 318 319 296 300 326 358 18 332 305 286 250 222
306 269 261 271 289 155 278 297 289 255 256 270 255 265 295 190 263 284 273 304 303 295 309 321 299 310 310 309 310 307 300 306 302 306 300 286 275 289 342 345 323 277 259 243
220 253 256 264 271 282 279 269 255 261 262 263 279 288 288 287 291 302 317 302 297 313 315 302 270 263 264 281 292 290 291 299 298 291 292 289 275 273 269 239 297 310 301 276
217 261 269 269 257 258 266 263 258 258 260 262 267 263 265 267 309 324 328 311 328 281 260 266 282 289 304 305 296 290 290 289 291 287 285 283 282 270 272 241 231 265 287 299
262 242 233 262 254 262 260 254 249 250 247 244 253 263 12 295 285 310 290 285 290 295 290 291 296 293 273 274 272 276 288 290 285 284 280 279 277 272 263 255 238 239 257 274
259 243 259 278 291 263 285 182 313 302 295 304 264 323 360 337 318 307 293 292 281 294 318 309 299 298 296 296 295 291 284 278 277 278 276 273 276 275 268 256 245 241 246 253
225 242 263 254 253 282 247 231 273 305 296 315 324 262 315 323 313 289 272 339 332 316 301 289 288 295 299 293 284 288 294 296 289 279 271 268 268 271 271 263 256 240 238 234
221 236 232 250 248 273 65 111 16 308 256 39 3 339 316 318 295 294 343 323 309 304 301 299 295 286 289 294 295 294 289 283 284 282 284 279 266 268 270 272 262 256 244 239
198 194 215 229 250 269 107 111 290 254 33 308 309 319 312 302 306 313 307 302 309 304 297 292 294 289 292 298 289 280 285 284 291 290 278 279 283 283 273 262 264 255 250 250
231 208 206 230 243 253 80 248 311 340 310 323 318 314 308 304 303 302 302 303 299 293 294 293 291 291 297 300 292 272 271 280 283 276 277 271 272 276 274 280 280 270 255 253
235 244 328 242 263 222 315 306 351 326 301 319 316 315 310 304 303 305 307 307 303 299 301 305 300 308 299 293 288 282 286 280 279 277 271 275 277 270 266 266 267 265 259 261
306 297 260 286 234 347 225 249 302 322 328 326 318 314 313 307 304 306 309 303 298 305 299 305 316 304 299 293 297 287 285 287 286 275 270 268 265 263 257 258 256 251 249 250
286 274 282 272 229 296 52 351 325 327 325 325 322 314 307 308 311 308 297 301 303 312 322 321 312 299 294 287 284 290 287 281 275 269 264 261 257 254 254 249 245 245 244 240
326 350 313 318 11 334 319 329 346 340 330 325 318 315 314 316 303 302 308 314 325 322 314 302 300 298 298 296 290 285 282 281 271 271 271 266 263 260 254 252 252 247 247 248